Location: Angwan Shehu
(11.2514°N, 7.4613°E)
Time: 03:31:21
(UTC+00:00)

Vanguard 3 - Pass Details

Date: 03 August 2021
Orbit: 510 x 3260 km, 33.3° (Epoch: 16 September)

Event Time Altitude Azimuth Distance (km) Brightness Sun altitude
Rises 17:42:42 0° 286° (WNW) 5,366 15.5 1.8°
Reaches altitude 10° 17:46:22 10° 296° (WNW) 4,734 13.2 1.0°
Maximum altitude 17:59:09 34° 357° (N) 4,060 11.0 -2.0°
Drops below altitude 10° 18:16:03 10° 56° (NE) 6,196 11.3 -5.9°
Sets 18:21:52 0° 65° (ENE) 7,167 11.5 -7.3°
